Time,TemperatureF,DewpointF,PressureIn,WindDirection,WindDirectionDegrees,WindSpeedMPH,WindSpeedGustMPH,Humidity,HourlyPrecipIn,Conditions,Clouds,dailyrainin,SoftwareType,DateUTC
2013-07-16 00:01:00,73.0,70.0,-100.00,NE,42,3.0,4.0,90,-99.99,,,-99.99,,2013-07-16 04:01:00,
2013-07-16 00:12:00,73.0,70.0,-100.00,NE,42,3.0,4.0,90,-99.99,,,-99.99,,2013-07-16 04:12:00,
2013-07-16 00:22:00,73.0,70.0,-100.00,ENE,60,3.0,4.0,91,-99.99,,,-99.99,,2013-07-16 04:22:00,
2013-07-16 00:32:00,73.0,70.0,-100.00,ENE,60,3.0,4.0,91,-99.99,,,-99.99,,2013-07-16 04:32:00,
2013-07-16 00:43:00,73.0,70.0,-100.00,ENE,60,3.0,4.0,91,-99.99,,,-99.99,,2013-07-16 04:43:00,
2013-07-16 00:53:00,73.0,71.0,-100.00,East,79,3.0,6.0,93,-99.99,,,-99.99,,2013-07-16 04:53:00,
2013-07-16 01:11:00,73.0,71.0,-100.00,ENE,70,3.0,6.0,93,-99.99,,,-99.99,,2013-07-16 05:11:00,
2013-07-16 01:22:00,73.0,71.0,-100.00,ENE,70,3.0,6.0,93,-99.99,,,-99.99,,2013-07-16 05:22:00,
2013-07-16 01:32:00,73.0,71.0,-100.00,NE,49,2.0,4.0,94,-99.99,,,-99.99,,2013-07-16 05:32:00,
2013-07-16 01:52:00,72.0,71.0,-100.00,NE,47,2.0,4.0,95,-99.99,,,-99.99,,2013-07-16 05:52:00,
2013-07-16 02:11:00,72.0,71.0,-100.00,NE,56,3.0,5.0,96,-99.99,,,-99.99,,2013-07-16 06:11:00,
2013-07-16 02:32:00,73.0,72.0,-100.00,NE,49,3.0,6.0,96,-99.99,,,-99.99,,2013-07-16 06:32:00,
2013-07-16 02:52:00,72.0,71.0,-100.00,NE,38,2.0,3.0,96,-99.99,,,-99.99,,2013-07-16 06:52:00,
2013-07-16 03:12:00,72.0,71.0,-100.00,NE,50,2.0,4.0,97,-99.99,,,-99.99,,2013-07-16 07:12:00,
2013-07-16 03:22:00,72.0,71.0,-100.00,NE,50,2.0,4.0,97,-99.99,,,-99.99,,2013-07-16 07:22:00,
2013-07-16 03:32:00,72.0,71.0,-100.00,NE,50,2.0,4.0,97,-99.99,,,-99.99,,2013-07-16 07:32:00,
2013-07-16 03:43:00,72.0,71.0,-100.00,NNE,30,2.0,3.0,97,-99.99,,,-99.99,,2013-07-16 07:43:00,
2013-07-16 03:52:00,72.0,71.0,-100.00,NNE,30,2.0,3.0,97,-99.99,,,-99.99,,2013-07-16 07:52:00,
2013-07-16 04:01:00,72.0,71.0,-100.00,NE,39,2.0,4.0,97,-99.99,,,-99.99,,2013-07-16 08:01:00,
2013-07-16 04:11:00,72.0,71.0,-100.00,NE,39,2.0,4.0,97,-99.99,,,-99.99,,2013-07-16 08:11:00,
2013-07-16 04:32:00,72.0,71.0,-100.00,NE,37,2.0,4.0,97,-99.99,,,-99.99,,2013-07-16 08:32:00,
2013-07-16 04:52:00,72.0,71.0,-100.00,NE,42,3.0,6.0,97,-99.99,,,-99.99,,2013-07-16 08:52:00,
2013-07-16 05:01:00,72.0,71.0,-100.00,NE,39,3.0,5.0,98,-99.99,,,-99.99,,2013-07-16 09:01:00,
2013-07-16 05:12:00,72.0,71.0,-100.00,NE,39,3.0,5.0,98,-99.99,,,-99.99,,2013-07-16 09:12:00,
2013-07-16 05:32:00,71.0,71.0,-100.00,NE,44,3.0,6.0,97,-99.99,,,-99.99,,2013-07-16 09:32:00,
2013-07-16 05:42:00,71.0,71.0,-100.00,NE,49,1.0,3.0,97,-99.99,,,-99.99,,2013-07-16 09:42:00,
2013-07-16 05:52:00,71.0,71.0,-100.00,NE,49,1.0,3.0,97,-99.99,,,-99.99,,2013-07-16 09:52:00,
2013-07-16 06:01:00,71.0,71.0,-100.00,NE,49,1.0,3.0,97,-99.99,,,-99.99,,2013-07-16 10:01:00,
2013-07-16 06:11:00,71.0,70.0,-100.00,NE,47,2.0,3.0,98,-99.99,,,-99.99,,2013-07-16 10:11:00,
2013-07-16 06:22:00,71.0,70.0,-100.00,NE,47,2.0,3.0,98,-99.99,,,-99.99,,2013-07-16 10:22:00,
2013-07-16 06:43:00,72.0,71.0,-100.00,NE,50,3.0,6.0,98,-99.99,,,-99.99,,2013-07-16 10:43:00,
2013-07-16 06:52:00,72.0,71.0,-100.00,NE,50,3.0,6.0,98,-99.99,,,-99.99,,2013-07-16 10:52:00,
2013-07-16 07:01:00,72.0,71.0,-100.00,NE,50,3.0,6.0,98,-99.99,,,-99.99,,2013-07-16 11:01:00,
2013-07-16 07:11:00,72.0,71.0,-100.00,NE,45,3.0,5.0,98,-99.99,,,-99.99,,2013-07-16 11:11:00,
2013-07-16 07:22:00,72.0,71.0,-100.00,NE,45,3.0,5.0,98,-99.99,,,-99.99,,2013-07-16 11:22:00,
2013-07-16 07:53:00,72.0,71.0,-100.00,NE,42,2.0,4.0,98,-99.99,,,-99.99,,2013-07-16 11:53:00,
2013-07-16 08:11:00,72.0,72.0,-100.00,NE,41,2.0,5.0,97,-99.99,,,-99.99,,2013-07-16 12:11:00,
2013-07-16 08:22:00,72.0,72.0,-100.00,NE,41,2.0,5.0,97,-99.99,,,-99.99,,2013-07-16 12:22:00,
2013-07-16 08:43:00,73.0,72.0,-100.00,NE,46,4.0,9.0,96,-99.99,,,-99.99,,2013-07-16 12:43:00,
2013-07-16 09:32:00,73.0,72.0,-100.00,NE,46,4.0,9.0,96,-99.99,,,-99.99,,2013-07-16 13:32:00,
2013-07-16 09:42:00,73.0,72.0,-100.00,NE,46,4.0,9.0,96,-99.99,,,-99.99,,2013-07-16 13:42:00,
2013-07-16 09:52:00,73.0,72.0,-100.00,NE,46,4.0,9.0,96,-99.99,,,-99.99,,2013-07-16 13:52:00,
2013-07-16 10:02:00,73.0,72.0,-100.00,NE,46,4.0,9.0,96,-99.99,,,-99.99,,2013-07-16 14:02:00,
2013-07-16 11:43:00,82.0,72.0,-100.00,ENE,71,8.0,15.0,70,-99.99,,,-99.99,,2013-07-16 15:43:00,
2013-07-16 11:53:00,82.0,72.0,-100.00,ENE,71,8.0,15.0,70,-99.99,,,-99.99,,2013-07-16 15:53:00,
2013-07-16 12:11:00,85.0,72.0,-100.00,East,91,8.0,16.0,65,-99.99,,,-99.99,,2013-07-16 16:11:00,
2013-07-16 12:22:00,85.0,72.0,-100.00,East,91,8.0,16.0,65,-99.99,,,-99.99,,2013-07-16 16:22:00,
2013-07-16 12:43:00,84.0,72.0,-100.00,East,99,9.0,21.0,66,-99.99,,,-99.99,,2013-07-16 16:43:00,
2013-07-16 12:52:00,84.0,72.0,-100.00,East,99,9.0,21.0,66,-99.99,,,-99.99,,2013-07-16 16:52:00,
2013-07-16 13:02:00,84.0,72.0,-100.00,East,99,9.0,21.0,66,-99.99,,,-99.99,,2013-07-16 17:02:00,
2013-07-16 13:12:00,84.0,71.0,-100.00,ESE,122,13.0,21.0,63,-99.99,,,-99.99,,2013-07-16 17:12:00,
2013-07-16 13:33:00,84.0,71.0,-100.00,ESE,102,13.0,29.0,64,-99.99,,,-99.99,,2013-07-16 17:33:00,
2013-07-16 13:43:00,83.0,71.0,-100.00,East,100,15.0,30.0,66,-99.99,,,-99.99,,2013-07-16 17:43:00,
2013-07-16 13:53:00,83.0,71.0,-100.00,East,100,15.0,30.0,66,-99.99,,,-99.99,,2013-07-16 17:53:00,
2013-07-16 14:11:00,83.0,71.0,-100.00,East,95,12.0,26.0,66,-99.99,,,-99.99,,2013-07-16 18:11:00,
2013-07-16 14:33:00,83.0,71.0,-100.00,East,90,11.0,22.0,65,-99.99,,,-99.99,,2013-07-16 18:33:00,
2013-07-16 14:43:00,83.0,71.0,-100.00,ESE,103,11.0,20.0,65,-99.99,,,-99.99,,2013-07-16 18:43:00,
2013-07-16 14:53:00,83.0,71.0,-100.00,ESE,103,11.0,20.0,65,-99.99,,,-99.99,,2013-07-16 18:53:00,
2013-07-16 15:11:00,78.0,72.0,-100.00,ESE,105,8.0,28.0,82,-99.99,,,-99.99,,2013-07-16 19:11:00,
2013-07-16 15:32:00,78.0,74.0,-100.00,East,100,7.0,17.0,88,-99.99,,,-99.99,,2013-07-16 19:32:00,
2013-07-16 15:43:00,78.0,74.0,-100.00,East,100,7.0,17.0,88,-99.99,,,-99.99,,2013-07-16 19:43:00,
2013-07-16 16:30:00,83.0,72.0,-100.00,ESE,119,7.0,14.0,69,-99.99,,,-99.99,,2013-07-16 20:30:00,
2013-07-16 16:43:00,82.0,72.0,-100.00,ESE,103,8.0,14.0,71,-99.99,,,-99.99,,2013-07-16 20:43:00,
2013-07-16 16:52:00,82.0,72.0,-100.00,ESE,103,8.0,14.0,71,-99.99,,,-99.99,,2013-07-16 20:52:00,
2013-07-16 17:01:00,82.0,72.0,-100.00,ESE,103,8.0,14.0,71,-99.99,,,-99.99,,2013-07-16 21:01:00,
2013-07-16 17:11:00,83.0,72.0,-100.00,ESE,119,7.0,14.0,69,-99.99,,,-99.99,,2013-07-16 21:11:00,
2013-07-16 17:22:00,83.0,72.0,-100.00,ESE,119,7.0,14.0,69,-99.99,,,-99.99,,2013-07-16 21:22:00,
2013-07-16 17:43:00,83.0,72.0,-100.00,East,96,7.0,15.0,68,-99.99,,,-99.99,,2013-07-16 21:43:00,
2013-07-16 17:52:00,85.0,71.0,-100.00,East,96,9.0,17.0,63,-99.99,,,-99.99,,2013-07-16 21:52:00,
2013-07-16 18:01:00,85.0,71.0,-100.00,East,96,9.0,17.0,63,-99.99,,,-99.99,,2013-07-16 22:01:00,
2013-07-16 18:11:00,84.0,71.0,-100.00,East,87,7.0,16.0,63,-99.99,,,-99.99,,2013-07-16 22:11:00,
2013-07-16 18:22:00,84.0,71.0,-100.00,East,87,7.0,16.0,63,-99.99,,,-99.99,,2013-07-16 22:22:00,
2013-07-16 18:43:00,84.0,71.0,-100.00,ESE,104,9.0,18.0,62,-99.99,,,-99.99,,2013-07-16 22:43:00,
2013-07-16 18:52:00,84.0,71.0,-100.00,ESE,104,9.0,18.0,62,-99.99,,,-99.99,,2013-07-16 22:52:00,
2013-07-16 19:02:00,84.0,71.0,-100.00,ESE,104,9.0,18.0,62,-99.99,,,-99.99,,2013-07-16 23:02:00,
2013-07-16 19:11:00,84.0,71.0,-100.00,East,89,7.0,12.0,63,-99.99,,,-99.99,,2013-07-16 23:11:00,
2013-07-16 19:32:00,83.0,70.0,-100.00,East,96,7.0,15.0,64,-99.99,,,-99.99,,2013-07-16 23:32:00,
2013-07-16 19:43:00,83.0,70.0,-100.00,East,91,7.0,14.0,65,-99.99,,,-99.99,,2013-07-16 23:43:00,
2013-07-16 19:52:00,83.0,70.0,-100.00,East,91,7.0,14.0,65,-99.99,,,-99.99,,2013-07-16 23:52:00,
2013-07-16 20:01:00,83.0,70.0,-100.00,ESE,108,7.0,15.0,63,-99.99,,,-99.99,,2013-07-17 00:01:00,
2013-07-16 20:11:00,83.0,70.0,-100.00,ESE,108,7.0,15.0,63,-99.99,,,-99.99,,2013-07-17 00:11:00,
2013-07-16 20:42:00,79.0,70.0,30.09,ENE,76,4.0,7.0,72,-99.99,,,-99.99,,2013-07-17 00:42:00,
2013-07-16 20:52:00,79.0,70.0,30.09,ENE,76,4.0,7.0,72,-99.99,,,-99.99,,2013-07-17 00:52:00,
2013-07-16 21:01:00,78.0,69.0,30.10,ENE,60,4.0,8.0,72,-99.99,,,-99.99,,2013-07-17 01:01:00,
2013-07-16 21:11:00,78.0,69.0,30.10,ENE,60,4.0,8.0,72,-99.99,,,-99.99,,2013-07-17 01:11:00,
2013-07-16 21:32:00,78.0,69.0,30.10,ENE,63,4.0,9.0,73,-99.99,,,-99.99,,2013-07-17 01:32:00,
2013-07-16 21:43:00,78.0,69.0,30.11,ENE,62,4.0,9.0,73,-99.99,,,-99.99,,2013-07-17 01:43:00,
2013-07-16 21:53:00,78.0,69.0,30.11,ENE,62,4.0,9.0,73,-99.99,,,-99.99,,2013-07-17 01:53:00,
2013-07-16 22:11:00,77.0,68.0,30.12,NE,52,4.0,7.0,74,-99.99,,,-99.99,,2013-07-17 02:11:00,
2013-07-16 22:22:00,77.0,68.0,30.12,NE,52,4.0,7.0,74,-99.99,,,-99.99,,2013-07-17 02:22:00,
2013-07-16 22:43:00,75.0,69.0,30.11,NE,41,2.0,4.0,82,-99.99,,,-99.99,,2013-07-17 02:43:00,
2013-07-16 22:53:00,75.0,69.0,30.11,NE,41,2.0,4.0,82,-99.99,,,-99.99,,2013-07-17 02:53:00,
2013-07-16 23:01:00,75.0,69.0,30.11,NE,41,2.0,4.0,82,-99.99,,,-99.99,,2013-07-17 03:01:00,
2013-07-16 23:11:00,74.0,70.0,30.11,NE,37,3.0,5.0,86,-99.99,,,-99.99,,2013-07-17 03:11:00,
2013-07-16 23:22:00,74.0,70.0,30.11,NE,37,3.0,5.0,86,-99.99,,,-99.99,,2013-07-17 03:22:00,
2013-07-16 23:43:00,73.0,70.0,30.12,NE,48,4.0,8.0,89,-99.99,,,-99.99,,2013-07-17 03:43:00,
2013-07-16 23:53:00,73.0,70.0,30.12,NE,48,4.0,8.0,89,-99.99,,,-99.99,,2013-07-17 03:53:00,